Terminal Aerodrome Forecast
Issued by NWS La Crosse, WI

Home | Current Version | Previous Version | Text Only | Print | Product List | Glossary On
Versions: 1 2 3 4 5 6 7 8 9 10 11 12 13 14 15 16 17 18 19 20 21 22 23 24 25 26 27 28 29 30 31 32 33 34 35
000
FTUS43 KARX 231120
TAFRST
TAF
KRST 231120Z 2312/2412 19006KT P6SM SKC
     FM231600 18012KT P6SM SCT035
     FM240000 16006KT P6SM BKN250
     FM240400 15008KT P6SM VCSH OVC070=

USA.gov is the U.S. government's official web portal to all federal, state and local government web resources and services.